Weather History for KVGT - October, 2012

Change the Weather History Date:

Friday, October 19, 2012

  Actual Average Record
Temperature  
Mean Temperature 70 °F -  
Max Temperature 84 °F 80 °F 93 °F (1954)
Min Temperature 57 °F 53 °F 35 °F (1951)
Cooling Degree Days 4    
Growing Degree Days 20 (Base 50)    
Moisture  
Dew Point 33 °F    
Average Humidity 29    
Maximum Humidity 43    
Minimum Humidity 13    
Precipitation  
Precipitation 0.00 in - - ()
Sea Level Pressure  
Sea Level Pressure 29.97 in    
Wind  
Wind Speed 3 mph (NW)    
Max Wind Speed 7 mph    
Max Gust Speed -    
Visibility 10 miles    
Events      
Averages and records for this station are not official NWS values.
T = Trace of Precipitation, MM = Missing Value Source: NWS Daily Summary

Daily Weather History Graph

Daily Weather History Graph

Search for Another Location

Airport or City:

Trip Planner

Search our weather history database for the weather conditions in past years. The results will help you decide how hot, cold, wet, or windy it might be!

Date:

Astronomy

Oct. 19, 2012 Rise Set
Actual Time 6:51 AM PDT 5:58 PM PDT
Civil Twilight 6:25 AM PDT 6:24 PM PDT
Nautical Twilight 5:55 AM PDT 6:54 PM PDT
Astronomical Twilight 5:26 AM PDT 7:24 PM PDT
Moon 11:32 AM PDT (10/19) 9:47 PM PDT (10/19)
Length of Visible Light 11h 59m
Length of Day
11h 06m
Waxing Crescent, 24% of the Moon is Illuminated
Oct 19
Waxing Crescent
Oct 21
First Quarter
Oct 29
Full
Nov 6
Last Quarter
Nov 13
New

Hourly Weather History & Observations

Time (PDT) Temp. Dew Point Humidity Pressure Visibility Wind Dir Wind Speed Gust Speed Precip Events Conditions
12:53 AM 62.1 °F 35.1 °F 37% 30.04 in 10.0 mi WNW 3.5 mph - N/A   Clear
1:53 AM 60.1 °F 35.1 °F 39% 30.04 in 10.0 mi Calm Calm - N/A   Clear
2:53 AM 59.0 °F 35.1 °F 41% 30.04 in 10.0 mi Calm Calm - N/A   Clear
3:53 AM 57.9 °F 35.1 °F 42% 30.03 in 10.0 mi NW 6.9 mph - N/A   Clear
4:53 AM 60.1 °F 32.0 °F 35% 30.03 in 10.0 mi NW 4.6 mph - N/A   Clear
5:53 AM 57.9 °F 34.0 °F 41% 30.03 in 10.0 mi NW 4.6 mph - N/A   Clear
6:53 AM 57.0 °F 34.0 °F 42% 30.04 in 10.0 mi West 3.5 mph - N/A   Clear
7:53 AM 61.0 °F 33.1 °F 35% 30.06 in 10.0 mi Calm Calm - N/A   Clear
8:53 AM 66.0 °F 33.1 °F 29% 30.07 in 10.0 mi North 3.5 mph - N/A   Clear
9:53 AM 70.0 °F 30.9 °F 24% 30.06 in 10.0 mi Calm Calm - N/A   Clear
10:53 AM 73.0 °F 32.0 °F 22% 30.04 in 10.0 mi Calm Calm - N/A   Clear
11:53 AM 75.9 °F 30.9 °F 19% 30.02 in 10.0 mi SSE 3.5 mph - N/A   Clear
12:53 PM 79.0 °F 28.9 °F 16% 29.99 in 10.0 mi Calm Calm - N/A   Clear
1:53 PM 82.0 °F 28.0 °F 14% 29.95 in 10.0 mi Calm Calm - N/A   Clear
2:53 PM 82.0 °F 27.0 °F 13% 29.92 in 10.0 mi Calm Calm - N/A   Clear
3:53 PM 82.9 °F 26.1 °F 13% 29.90 in 10.0 mi Calm Calm - N/A   Clear
4:53 PM 82.9 °F 26.1 °F 13% 29.88 in 10.0 mi East 3.5 mph - N/A   Clear
5:53 PM 80.1 °F 28.9 °F 15% 29.88 in 10.0 mi SE 3.5 mph - N/A   Clear
6:53 PM 77.0 °F 30.0 °F 18% 29.87 in 10.0 mi Calm Calm - N/A   Clear
7:53 PM 72.0 °F 37.0 °F 28% 29.88 in 10.0 mi WNW 5.8 mph - N/A   Clear
8:53 PM 68.0 °F 39.0 °F 35% 29.88 in 10.0 mi NW 4.6 mph - N/A   Clear
9:53 PM 66.0 °F 39.0 °F 37% 29.88 in 10.0 mi North 4.6 mph - N/A   Clear
10:53 PM 64.9 °F 39.0 °F 39% 29.88 in 10.0 mi NNW 3.5 mph - N/A   Clear
11:53 PM 63.0 °F 39.9 °F 43% 29.87 in 10.0 mi NNW 5.8 mph - N/A   Clear